Elk Grove Village, Illinois, United States (60007)
Lat: 42.00N, Lon: 87.97W
Wx Zone: ILZ014
Local Info
Past Weather Observations for Today

NOTE: This archive is for the closest National Weather Service station to Elk Grove Village. Information may differ from the station used for current weather conditions.

Click here for Long-term Archive

Time Weather Temperature Dewpoint Humidity Pressure Winds Precip Visibility
20:51
Mostly Cloudy
46°F / 8°C 37°F / 3°C 71% 30.27 in
(1025 mb)
NNE 6.9 mph
(NNE 11 kph)
- 10SM
20:33
Mostly Cloudy
46°F / 8°C 37°F / 3°C 71% 30.27 in
(1025 mb)
N 6.9 mph
(N 11 kph)
- 10SM
19:51
Mostly Cloudy
46°F / 8°C 37°F / 3°C 71% 30.27 in
(1025 mb)
NNW 6.9 mph
(NNW 11 kph)
- 10SM
18:51
Mostly Cloudy
46°F / 8°C 37°F / 3°C 71% 30.24 in
(1024 mb)
N 8.1 mph
(N 13 kph)
- 10SM
18:31
Mostly Cloudy
46°F / 8°C 36°F / 2°C 66% 30.24 in
(1024 mb)
NNE 9.2 mph
(NNE 15 kph)
- 10SM
17:51
Mostly Cloudy
48°F / 9°C 37°F / 3°C 66% 30.21 in
(1023 mb)
NE 12.7 mph
(NE 20 kph)
- 10SM
16:51
Overcast
48°F / 9°C 39°F / 4°C 71% 30.21 in
(1023 mb)
N 10.4 mph
(N 17 kph)
- 10SM
16:24
Overcast
48°F / 9°C 39°F / 4°C 71% 30.21 in
(1023 mb)
N 8.1 mph
(N 13 kph)
- 10SM
15:51
Overcast
48°F / 9°C 39°F / 4°C 71% 30.21 in
(1023 mb)
N 15 mph
(N 24 kph)
- 10SM
14:51
Overcast
48°F / 9°C 39°F / 4°C 71% 30.18 in
(1022 mb)
N 13.8 mph
(N 22 kph)
- 10SM
14:09
Overcast
48°F / 9°C 39°F / 4°C 71% 30.18 in
(1022 mb)
N 12.7 mph
(N 20 kph)
- 10SM
13:51
Overcast
50°F / 10°C 39°F / 4°C 67% 30.18 in
(1022 mb)
N 15 mph
(N 24 kph)
- 10SM
12:51
Overcast
52°F / 11°C 39°F / 4°C 62% 30.18 in
(1022 mb)
N 20.7 mph
(N 33 kph)
- 10SM
11:51
Overcast
52°F / 11°C 39°F / 4°C 62% 30.18 in
(1022 mb)
NE 18.4 mph
(NE 30 kph)
- 10SM
10:51
Mostly Cloudy
52°F / 11°C 39°F / 4°C 62% 30.18 in
(1022 mb)
NNE 17.3 mph
(NNE 28 kph)
- 10SM
10:39
Mostly Cloudy
52°F / 11°C 39°F / 4°C 62% 30.18 in
(1022 mb)
N 12.7 mph
(N 20 kph)
- 10SM
10:26
Mostly Cloudy
52°F / 11°C 39°F / 4°C 62% 30.18 in
(1022 mb)
NNE 16.1 mph
(NNE 26 kph)
- 10SM
09:51
Mostly Cloudy
50°F / 10°C 39°F / 4°C 67% 30.18 in
(1022 mb)
N 15 mph
(N 24 kph)
- 10SM
08:51
Mostly Cloudy
48°F / 9°C 39°F / 4°C 71% 30.15 in
(1021 mb)
N 12.7 mph
(N 20 kph)
- 10SM
07:51
Mostly Cloudy
46°F / 8°C 39°F / 4°C 76% 30.15 in
(1021 mb)
N 12.7 mph
(N 20 kph)
- 10SM
06:51
Mostly Cloudy
46°F / 8°C 39°F / 4°C 76% 30.12 in
(1020 mb)
NNW 13.8 mph
(NNW 22 kph)
- 10SM
05:51
Partly Cloudy
46°F / 8°C 39°F / 4°C 76% 30.09 in
(1019 mb)
NNW 11.5 mph
(NNW 19 kph)
- 10SM
04:51
Mostly Cloudy
48°F / 9°C 39°F / 4°C 71% 30.06 in
(1018 mb)
N 10.4 mph
(N 17 kph)
- 10SM
03:51
Overcast
48°F / 9°C 41°F / 5°C 76% 30.04 in
(1017 mb)
N 10.4 mph
(N 17 kph)
- 10SM
02:51
Overcast
50°F / 10°C 39°F / 4°C 67% 30.04 in
(1017 mb)
N 10.4 mph
(N 17 kph)
- 10SM
01:51
Overcast
52°F / 11°C 43°F / 6°C 72% 30.01 in
(1016 mb)
N 10.4 mph
(N 17 kph)
- 10SM
00:51
Overcast
52°F / 11°C 43°F / 6°C 72% 30.01 in
(1016 mb)
N 5.8 mph
(N 9 kph)
- 10SM
Time Weather Temperature Dewpoint Humidity Pressure Winds Precip Visibility


Weather for websites

WeatherForYou.com, LLC is not responsible for any damages or problems caused by this service. Current weather conditions are obtained from the closest station including government and personal stations which may have varying degrees of accuracy. Weather forecasts are derived from the NOAA NDFD. Like all things, this site belongs to Jesus Christ... He just trusts me to maintain it. If you have any questions or comments email webmaster@weatherforyou.com

Copyright © 2014, WeatherForYou.com LLC. All rights reserved.